Location: Phoenix
(33.4480°N, 112.0730°W)
Time: 21:55:35
(UTC-07:00)

ISS - All Passes

Search period start: 17 April 2015 00:00
Search period end: 27 April 2015 00:00
Orbit: 395 x 404 km, 51.6° (Epoch: 17 April)

Date Brightness Start Highest point End Pass type
(mag) Time Alt. Az. Time Alt. Az. Time Alt. Az.
17 Apr - 14:16:47 10° SW 14:20:00 64° SE 14:23:14 10° NE daylight
17 Apr - 15:54:57 10° WNW 15:56:42 13° NNW 15:58:22 10° N daylight
17 Apr - 20:48:26 10° N 20:50:10 14° NNE 20:51:56 10° ENE visible
17 Apr - 22:23:38 10° NW 22:26:50 60° SW 22:30:01 10° SE visible
18 Apr - 13:23:31 10° S 13:26:17 26° SE 13:29:05 10° ENE daylight
18 Apr - 14:59:58 10° W 15:02:39 23° NW 15:05:18 10° NNE daylight
18 Apr - 21:29:49 10° NW 21:33:01 55° NE 21:36:12 10° ESE visible
19 Apr - 12:31:19 10° SSE 12:32:33 12° SE 12:33:56 10° ESE daylight
19 Apr - 14:05:31 10° WSW 14:08:40 45° NW 14:11:49 10° NE daylight
19 Apr - 20:36:16 10° NNW 20:39:03 26° NE 20:41:52 10° E visible
19 Apr - 22:12:46 10° WNW 22:15:21 22° SW 22:17:52 10° S visible
20 Apr - 13:11:31 10° SW 13:14:46 75° SE 13:18:01 10° NE daylight
20 Apr - 14:50:03 10° NW 14:51:30 12° NNW 14:52:53 10° N daylight
20 Apr - 19:43:00 10° N 19:44:56 15° NNE 19:46:56 10° ENE visible
20 Apr - 21:18:23 10° WNW 21:21:33 51° SW 21:24:41 10° SSE visible
21 Apr - 12:18:01 10° SSW 12:20:54 30° SE 12:23:49 10° ENE daylight
21 Apr - 13:54:45 10° W 13:57:18 21° NW 13:59:50 10° NNE daylight
21 Apr - 20:24:24 10° NW 20:27:37 64° NE 20:30:50 10° SE visible
22 Apr - 11:25:23 10° SSE 11:27:03 14° SE 11:28:50 10° E daylight
22 Apr - 13:00:06 10° WSW 13:03:11 39° NW 13:06:16 10° NNE daylight
22 Apr - 19:30:40 10° NNW 19:33:33 29° NE 19:36:27 10° E visible
22 Apr - 21:07:23 10° W 21:09:47 19° SW 21:12:07 10° S visible
23 Apr - 12:05:53 10° SW 12:09:07 87° SE 12:12:23 10° NE daylight
23 Apr - 13:44:48 10° NW 13:45:55 11° NNW 13:46:58 10° N daylight
23 Apr - 18:37:11 10° N 18:39:19 16° NNE 18:41:30 10° ENE daylight
23 Apr - 20:12:46 10° WNW 20:15:52 43° SW 20:18:56 10° SSE visible
24 Apr - 11:12:09 10° SSW 11:15:08 34° SE 11:18:08 10° ENE daylight
24 Apr - 12:49:09 10° W 12:51:35 19° NNW 12:53:58 10° NNE daylight
24 Apr - 19:18:35 10° NW 19:21:50 74° NE 19:25:03 10° SE daylight
25 Apr - 10:19:11 10° SSE 10:21:09 15° SE 10:23:12 10° E daylight
25 Apr - 11:54:17 10° WSW 11:57:18 35° NW 12:00:21 10° NNE daylight
25 Apr - 18:24:41 10° NNW 18:27:39 32° NE 18:30:37 10° ESE daylight
25 Apr - 20:01:37 10° W 20:03:50 17° SW 20:05:57 10° S visible
26 Apr - 10:59:53 10° SW 11:03:07 82° NW 11:06:22 10° NE daylight
26 Apr - 12:39:18 10° NW 12:39:57 10° NNW 12:40:31 10° NNW daylight
26 Apr - 17:31:02 10° NNW 17:33:19 18° NNE 17:35:38 10° ENE daylight
26 Apr - 19:06:45 10° WNW 19:09:47 38° SW 19:12:48 10° SSE daylight
